Visibility
11.7 15.0 10.7 15.0 15.0 15.0 0.3 15.0 15.0 15.0 15.0 15.0 15.0 15.0 15.0 15.0 15.0 15.0 15.0 15.0 15.0 15.0 15.0 15.0 15.0 15.0 15.0 15.0 15.0 15.0 15.0 15.0 15.0 12.8 15.0 15.0 15.0 13.7 15.0 15.0 15.0 15.0 15.0 15.0
12.0 15.0 8.2 12.9 15.0 15.0 0.9 11.9 14.9 13.0 15.0 15.0 15.0 15.0 15.0 15.0 15.0 15.0 15.0 15.0 15.0 15.0 15.0 15.0 15.0 15.0 15.0 15.0 15.0 15.0 15.0 15.0 15.0 15.0 15.0 10.5 14.2 15.0 15.0 15.0 15.0 15.0 15.0 15.0
12.5 15.0 8.1 7.2 14.4 15.0 15.0 15.0 13.8 2.7 15.0 15.0 15.0 15.0 15.0 15.0 15.0 15.0 15.0 15.0 15.0 15.0 15.0 15.0 15.0 15.0 15.0 15.0 15.0 15.0 15.0 15.0 15.0 15.0 15.0 15.0 15.0 15.0 15.0 15.0 15.0 15.0 15.0 15.0
7.6 11.1 7.2 10.9 9.1 15.0 0.7 15.0 15.0 12.8 0.1 12.3 15.0 15.0 15.0 15.0 15.0 15.0 15.0 15.0 15.0 15.0 15.0 15.0 15.0 15.0 15.0 15.0 15.0 15.0 15.0 15.0 15.0 15.0 15.0 15.0 15.0 15.0 15.0 15.0 15.0 15.0 15.0 15.0
10.3 4.6 6.5 14.7 8.0 15.0 0.1 15.0 15.0 15.0 15.0 15.0 15.0 15.0 15.0 15.0 15.0 15.0 15.0 15.0 15.0 15.0 15.0 15.0 15.0 15.0 15.0 15.0 15.0 15.0 15.0 15.0 15.0 15.0 15.0 15.0 15.0 15.0 15.0 15.0 15.0 15.0 15.0 15.0
14.1 3.6 5.0 5.2 7.4 15.0 7.6 15.0 15.0 15.0 15.0 15.0 15.0 15.0 15.0 15.0 15.0 15.0 15.0 15.0 15.0 15.0 15.0 15.0 15.0 15.0 15.0 15.0 15.0 15.0 15.0 15.0 15.0 15.0 15.0 15.0 15.0 15.0 15.0 15.0 15.0 15.0 15.0 15.0
15.0 12.4 7.3 6.0 10.0 15.0 14.8 15.0 15.0 12.9 15.0 15.0 15.0 15.0 15.0 15.0 15.0 15.0 15.0 15.0 15.0 15.0 15.0 15.0 15.0 15.0 15.0 15.0 15.0 15.0 15.0 15.0 15.0 15.0 15.0 15.0 15.0 15.0 15.0 15.0 15.0 15.0 15.0 15.0
15.0 10.8 12.2 3.8 15.0 15.0 15.0 15.0 14.7 12.2 0.0 15.0 15.0 15.0 15.0 15.0 15.0 15.0 15.0 15.0 15.0 15.0 15.0 15.0 11.3 12.9 6.7 10.6 10.4 15.0 15.0 15.0 15.0 15.0 15.0 15.0 15.0 15.0 15.0 15.0 15.0 15.0 15.0 15.0
15.0 15.0 8.2 13.3 15.0 15.0 15.0 15.0 14.9 0.7 0.2 15.0 15.0 15.0 15.0 15.0 15.0 15.0 15.0 15.0 15.0 13.0 15.0 15.0 13.6 14.7 15.0 15.0 15.0 15.0 15.0 15.0 15.0 15.0 15.0 15.0 15.0 15.0 15.0 15.0 15.0 15.0 15.0 15.0
9.7 13.4 13.3 15.0 15.0 10.6 15.0 15.0 12.7 2.3 0.1 15.0 14.3 15.0 15.0 15.0 15.0 12.6 15.0 15.0 15.0 10.4 0.0 0.1 15.0 13.6 14.2 15.0 15.0 15.0 13.6 9.7 14.1 15.0 6.6 15.0 15.0 15.0 15.0 15.0 15.0 15.0 15.0 15.0
8.9 15.0 15.0 15.0 15.0 12.8 15.0 15.0 15.0 0.2 5.9 15.0 13.3 15.0 15.0 15.0 15.0 15.0 15.0 15.0 15.0 7.3 2.0 7.1 15.0 9.6 15.0 15.0 15.0 15.0 15.0 0.9 10.7 14.7 0.8 13.0 15.0 15.0 15.0 15.0 15.0 15.0 15.0 15.0
14.3 15.0 15.0 15.0 15.0 15.0 15.0 15.0 15.0 15.0 0.2 3.4 11.1 11.6 15.0 15.0 15.0 15.0 15.0 15.0 15.0 15.0 13.3 1.2 0.6 2.3 0.1 15.0 15.0 15.0 15.0 14.2 15.0 14.9 15.0 15.0 15.0 15.0 15.0 15.0 15.0 15.0 15.0 15.0
15.0 15.0 15.0 15.0 15.0 15.0 15.0 15.0 15.0 14.7 1.3 3.5 9.8 14.6 13.2 15.0 15.0 11.6 15.0 15.0 15.0 15.0 15.0 14.1 0.4 0.1 15.0 5.2 15.0 15.0 15.0 15.0 15.0 15.0 15.0 15.0 15.0 15.0 15.0 15.0 15.0 15.0 15.0 15.0
15.0 15.0 15.0 15.0 15.0 15.0 15.0 15.0 13.9 9.4 4.5 0.1 11.5 9.2 12.9 4.9 15.0 15.0 5.0 15.0 15.0 15.0 15.0 0.2 0.1 0.1 15.0 15.0 15.0 15.0 15.0 15.0 15.0 15.0 15.0 15.0 15.0 15.0 15.0 15.0 15.0 15.0 15.0 15.0
15.0 15.0 15.0 15.0 15.0 15.0 13.6 15.0 12.8 4.1 4.5 0.1 3.7 13.9 15.0 13.2 13.4 6.9 15.0 15.0 14.8 4.2 2.9 0.0 0.0 15.0 15.0 15.0 15.0 15.0 15.0 15.0 15.0 15.0 15.0 15.0 15.0 15.0 15.0 15.0 15.0 15.0 15.0 15.0
15.0 15.0 15.0 15.0 11.1 5.4 14.8 8.8 2.2 2.7 2.4 0.1 0.1 11.1 14.7 15.0 15.0 13.5 6.5 7.2 15.0 15.0 2.0 0.5 15.0 15.0 15.0 0.6 15.0 15.0 15.0 15.0 15.0 15.0 15.0 15.0 15.0 15.0 15.0 15.0 15.0 15.0 15.0 15.0
15.0 15.0 14.5 8.0 12.8 14.2 1.8 2.8 2.2 3.8 3.0 0.1 0.0 0.1 15.0 15.0 14.5 12.7 6.3 15.0 15.0 11.1 13.6 12.3 15.0 15.0 10.6 0.1 15.0 15.0 15.0 15.0 15.0 15.0 15.0 15.0 15.0 15.0 15.0 15.0 15.0 15.0 15.0 15.0
15.0 15.0 15.0 15.0 15.0 3.5 3.4 9.3 2.8 10.8 2.5 9.2 0.0 0.1 0.6 9.3 9.5 0.1 15.0 14.9 11.0 14.2 6.1 12.3 14.7 9.2 3.0 15.0 15.0 15.0 15.0 15.0 15.0 15.0 15.0 15.0 15.0 15.0 15.0 15.0 15.0 15.0 15.0 15.0
6.9 4.3 1.9 0.4 0.2 1.7 2.3 2.7 9.9 14.1 15.0 0.0 0.0 0.0 0.0 15.0 11.6 3.4 13.1 9.3 0.3 2.2 0.0 6.2 5.6 10.9 11.5 15.0 15.0 15.0 15.0 15.0 15.0 15.0 15.0 15.0 15.0 15.0 15.0 15.0 15.0 15.0 15.0 15.0
2.7 3.8 0.5 0.2 2.5 4.5 6.9 15.0 15.0 15.0 15.0 11.8 0.0 0.2 0.0 0.4 0.1 0.0 0.1 0.0 0.0 1.3 2.1 11.3 0.0 0.3 15.0 15.0 15.0 15.0 15.0 15.0 15.0 15.0 15.0 15.0 15.0 15.0 15.0 15.0 15.0 15.0 15.0 15.0
0.3 0.3 0.1 0.1 1.5 1.2 14.4 4.2 4.9 3.4 0.2 11.2 8.9 4.9 0.3 5.0 5.0 0.0 0.1 0.0 0.0 0.0 15.0 13.7 0.6 0.1 14.8 14.3 15.0 15.0 15.0 15.0 15.0 15.0 15.0 15.0 15.0 15.0 15.0 15.0 15.0 15.0 15.0 0.7
12.2 12.8 12.3 4.1 11.6 6.7 1.9 0.1 0.1 5.9 0.2 0.7 0.0 6.4 15.0 9.9 15.0 0.2 0.6 7.8 9.6 1.9 0.6 12.5 0.4 3.8 15.0 15.0 15.0 15.0 15.0 15.0 15.0 15.0 15.0 15.0 15.0 15.0 15.0 15.0 15.0 15.0 15.0 11.8
15.0 7.3 2.5 1.9 0.1 0.2 12.7 0.0 1.5 0.1 0.0 0.0 0.0 0.0 0.1 2.2 1.7 0.0 2.5 2.6 2.8 15.0 0.4 12.0 0.2 14.8 15.0 15.0 15.0 15.0 15.0 15.0 15.0 15.0 15.0 15.0 15.0 15.0 15.0 15.0 15.0 15.0 15.0 15.0
0.3 0.1 0.1 0.0 0.1 0.0 0.0 0.0 0.0 0.0 0.0 0.0 0.1 0.0 0.0 0.0 0.1 0.0 0.5 0.0 9.0 15.0 0.7 10.5 0.2 15.0 15.0 15.0 15.0 15.0 15.0 15.0 15.0 15.0 15.0 15.0 15.0 15.0 15.0 15.0 15.0 15.0 15.0 15.0
7.6 0.6 0.0 0.0 0.0 0.0 0.0 0.0 0.0 0.0 0.1 0.0 0.4 0.1 9.5 0.0 0.1 0.1 0.1 0.0 14.2 15.0 8.1 0.1 13.4 15.0 15.0 15.0 15.0 15.0 15.0 15.0 15.0 15.0 15.0 15.0 15.0 15.0 15.0 15.0 15.0 15.0 15.0 15.0
0.1 0.0 0.0 0.0 0.0 0.0 0.0 0.0 0.0 0.3 0.1 0.0 0.4 0.7 5.8 0.1 0.1 0.1 0.1 15.0 3.4 0.1 0.1 0.0 15.0 15.0 15.0 15.0 15.0 15.0 15.0 15.0 15.0 15.0 15.0 15.0 15.0 15.0 15.0 15.0 15.0 15.0 15.0 15.0
0.0 0.0 0.0 0.0 0.0 0.0 0.0 0.0 0.1 2.5 0.0 0.0 0.0 14.7 0.1 3.2 15.0 1.6 0.1 0.0 0.0 0.0 0.0 2.5 15.0 15.0 15.0 15.0 15.0 15.0 15.0 15.0 15.0 15.0 15.0 15.0 15.0 15.0 15.0 15.0 15.0 15.0 15.0 15.0